Regional Weather Roundup
Issued by NWS Sterling, VA

Home | Current Version | Previous Version | Text Only | Print | Product List | Glossary Off
Versions: 1 2 3 4 5 6 7 8 9 10 11 12 13 14 15 16 17 18 19 20 21 22 23 24 25 26 27

000
ASUS41 KLWX 191810
RWRLWX

REGIONAL WEATHER ROUNDUP
NATIONAL WEATHER SERVICE BALTIMORE MD/WASHINGTON DC
100 PM EST THU JAN 19 2017

Note: "FAIR" indicates few or no clouds below 12,000 feet
with no significant weather and/or obstructions to visibility.
 TC=TEMPERATURE CELSIUS

 * =Non NWS site. Station does not report precipitation (e.g. rain,
    snow, etc.), thunder, or fog.

DCZ001-MDZ009-015-VAZ040>042-051-053>054-191900-
WASHINGTON METRO

CITY           SKY/WX    TMP DP  RH WIND       PRES   REMARKS
WASHINGTON NAT CLOUDY    52  37  56 NW6       30.07F
DULLES         CLOUDY    50  36  58 NW7       30.05F
ANDREWS AFB    CLOUDY    49  36  60 W7        30.05F
FT BELVOIR     PTSUNNY   51  36  57 W3        30.06F
QUANTICO       CLOUDY    51  39  63 W6        30.07F
COLLEGE PARK*  PTSUNNY   48  34  57 W7        30.06S
MANASSAS*        N/A    N/A N/A N/A CALM      30.08F
GAITHERSBURG*  CLOUDY    46  34  61 NW8       30.09S

$$

MDZ006>007-011-014-191900-
BALTIMORE METRO

CITY           SKY/WX    TMP DP  RH WIND       PRES   REMARKS
BWI AIRPORT    CLOUDY    49  36  61 W7        30.05F
MD SCIENCE CTR   N/A     50  33  52 MISG      30.06F
MARTIN STATE   MOSUNNY   52  39  62 NW3       30.07F
ANNAPOLIS      PTSUNNY   49  36  61 CALM      30.06F
FORT MEADE*    PTSUNNY   50  36  57 W8        30.08S

$$

MDZ012-015-019>023-191900-
MARYLAND EASTERN SHORE

CITY           SKY/WX    TMP DP  RH WIND       PRES   REMARKS
OCEAN CITY     CLOUDY    49  38  65 CALM      30.04F
SALISBURY      CLOUDY    49  36  61 NW5       30.04F
BAY BRIDGE AP* CLOUDY    46  36  66 CALM      30.06F
CAMBRIDGE*     PTSUNNY   46  34  61 W7        30.05F
EASTON*        PTSUNNY   50  36  57 NW7       30.09F

$$

MDZ017>025-191900-
SOUTHERN MARYLAND

CITY           SKY/WX    TMP DP  RH WIND       PRES   REMARKS
PATUXENT RIVER CLOUDY    49  37  63 N9        30.06F
ST INIGOES     CLOUDY    50  38  63 SW8       30.06F
LEONARDTOWN*   CLOUDY    48  36  61 W7        30.07F

$$

MDZ003>005-191900-
NORTH CENTRAL MARYLAND

CITY           SKY/WX    TMP DP  RH WIND       PRES   REMARKS
FREDERICK*     MOSUNNY   48  37  66 NW9       30.09F
HAGERSTOWN APT CLOUDY    47  34  60 W7        30.04F
WESTMINSTER*   CLOUDY    45  36  70 W8        30.04S

$$

MDZ501>502-191900-
WESTERN MARYLAND

CITY           SKY/WX    TMP DP  RH WIND       PRES   REMARKS
OAKLAND*       CLOUDY    34  34 100 S3        29.99F
CUMBERLAND*    CLOUDY    50  36  57 CALM      30.08F

$$

VAZ025>031-191900-
SHENANDOAH VALLEY

CITY           SKY/WX    TMP DP  RH WIND       PRES   REMARKS
WINCHESTER*    CLOUDY    45  36  70 CALM      30.03F
FRONT ROYAL*   CLOUDY    48  37  66 S5        30.03F
LURAY*         CLOUDY    48  41  76 CALM      30.02F
NEW MARKET*    CLOUDY    46  36  66 CALM      30.03F
STAUNTON*      CLOUDY    48  38  67 CALM      30.03F
WAYNESBORO*    CLOUDY    53  38  56 CALM      30.01F

$$

WVZ021-048>050-054>055-191900-
EASTERN WEST VIRGINIA PANHANDLE

CITY           SKY/WX    TMP DP  RH WIND       PRES   REMARKS
MARTINSBURG    CLOUDY    49  35  58 NW7       30.03F
PETERSBURG*    CLOUDY    45  38  76 CALM      30.04F

$$

VAZ036>039-050-191900-
CENTRAL FOOTHILLS

CITY           SKY/WX    TMP DP  RH WIND       PRES   REMARKS
CHARLOTTESVILL CLOUDY    53  38  56 VRB7      30.03F
CULPEPER*      CLOUDY    51  38  63 SW3       30.06F
ORANGE*          N/A     52  37  58 SW3       30.06F
GORDONSVILLE*  CLOUDY    50  38  64 SW6       30.04F
WARRENTON*     CLOUDY    51  35  52 SW3       30.05F

$$

VAZ055>057-191900-
NORTH AND CENTRAL PIEDMONT

CITY           SKY/WX    TMP DP  RH WIND       PRES   REMARKS
FREDERICKSBRG* CLOUDY    51  39  63 W8        30.06F
STAFFORD*      CLOUDY    50  38  62 CALM      30.10F

$$

NCZ024-NYZ072-PAZ021-071-VAZ022-071-191900-
OTHER REGIONAL OBSERVATIONS

CITY           SKY/WX    TMP DP  RH WIND       PRES   REMARKS
NEW YORK CITY  PTSUNNY   47  34  60 NW9       30.01F
PHILADELPHIA   PTSUNNY   48  35  60 NW12      30.03F
PITTSBURGH     CLOUDY    39  35  86 SE7       30.03F
ROANOKE        CLOUDY    56  39  53 SE5       30.03F
RICHMOND       CLOUDY    52  38  58 CALM      30.06F
RALEIGH        MOSUNNY   59  39  47 SW6       30.06F

$$

ANZ530>537-191900-
MARINE OBSERVATIONS

STATION/POSITION TIME  TEMP    WIND        PRES
                       AIR SEA DIR/SP/G
                 (UTC) (F)     (DEG/KT/KT) (MB)
THOMAS PT LIGHT  1800   47 40   CALM  /  1   N/A
BALT KEY BRIDGE  1736   48        CALM     1017.7F
COVE POINT       1736   44     360/  3/  3 1018.8F
LEWISETTA        1736   48 43   10/  7/  9 1018.1F
SOLOMONS ISLAND  1748      41  310/  6/  9   N/A
PINEY POINT      1748          310/  8/  8   N/A

$$





USA.gov is the U.S. government's official web portal to all federal, state and local government web resources and services.